SCP
0 0 0 0 0 0 0 0 0 0 0 0 0 0 0 0 0 0 0 0 0 0 0 0 0 0 0 0 0 0 0 0 0 0 0 0 0 0
0 0 0 0 0 0 0 0 0 0 0 0 0 0 0 0 0 0 0 0 0 0 0 0 0 0 0 0 0 0 0 0 0 0 0 0 0 0
0 0 0 0 0 0 0 0 0 0 0 0 0 0 0 0 0 0 0 0 0 0 0 0 0 0 0 0 0 0 0 0 0 0 0 0 0 0
0 0 0 0 0 0 0 0 0 0 0 0 0 0 0 0 0 0 0 0 0 0 0 0 0 0 0 0 0 0 0 0 0 0 0 0 0 0
0 0 0 0 0 0 0 0 0 0 0 0 0 0 0 0 0 0 0 0 0 0 0 0 0 0 0 0 0 0 0 0 0 0 0 0 0 0
0 0 0 0 0 0 0 0 0 0 0 0 0 0 0 0 0 0 0 0 0 0 0 0 0 0 0 0 0 0 0 0 0 0 0 0 0 0
0 0 0 0 0 0 0 0 0 0 0 0 0 0 0 0 0 0 0 0 0 0 0 0 0 0 0 0 0 0 0 0 0 0 0 0 0 0
0 0 0 0 0 0 0 0 0 0 0 0 0 0 0 0 0 0 0 0 0 0 0 0 0 0 0 0 0 0 0 0 0 0 0 0 0 0
0 0 0 0 0 0 0 0 0 0 0 0 0 0 0 0 0 0 0 0 0 0 0 0 0 0 0 0 0 0 0 0 0 0 0 0 0 0
0 0 0 0 0 0 0 0 0 0 0 0 0 0 0 0 0 0 0 0 0 0 0 0 0 0 0 0 0 0 0 0 0 0 0 0 0 0
0 0 0 0 0 0 0 0 0 0 0 0 0 0 0 0 0 0 0 0 0 0 0 0 0 0 0 0 0 0 0 0 0 0 0 0 0 0
0 0 0 0 0 0 0 0 0 0 0 0 0 0 0 0 0 0 0 0 0 0 0 0 0 0 -0 0 0 0 0 0 0 0 0 0 0 0
0 0 0 0 0 0 0 0 0 0 0 0 0 0 0 0 0 0 0 0 0 0 0 0 0 0 0 0 0 0 0 0 0 0 0 0 0 0
0 0 0 0 0 0 0 0 0 0 0 0 0 0 0 0 0 0 0 0 0 0 0 0 0 0 0 0 0 0 0 0 0 0 0 0 0 0
0 0 0 0 0 0 0 0 0 0 0 0 0 0 0 0 0 0 0 0 0 0 0 0 0 0 0 0 0 0 0 0 0 0 0 0 0 0
0 0 0 0 0 0 0 0 0 0 0 0 0 0 0 0 0 0 0 0 0 0 0 0 0 0 0 0 0 0 0 0 0 0 0 0 0 0
0 0 0 0 0 0 0 0 0 0 0 0 0 0 0 0 0 0 0 0 0 0 0 0 0 0 0 0 0 0 0 0 0 0 0 0 0 0
0 0 0 0 0 0 0 0 0 0 0 0 0 0 0 0 0 0 0 0 0 0 0 0 0 0 0 0 0 0 0 0 0 0 0 0 0 0
0 0 0 0 0 0 0 0 0 0 0 0 0 0 0 0 0 0 0 0 0 0 0 0 0 0 0 0 0 0 0 0 0 0 0 0 0 0
0 0 0 0 0 0 0 0 0 0 0 0 0 0 0 0 0 0 0 0 0 0 0 0 0 0 0 0 0 0 0 0 0 0 0 0 0 0
0 0 0 0 0 0 0 0 0 0 0 0 0 0 0 0 0 0 0 0 0 0 0 0 0 0 0 0 0 0 0 0 0 0 0 0 0 0
0 0 0 0 0 0 0 0 0 0 0 0 0 0 0 0 0 0 0 0 0 0 0 0 0 0 0 0 0 0 0 0 0 0 0 0 0 0
0 0 0 0 0 0 0 0 0 0 0 0 0 0 0 0 0 0 0 0 0 0 0 0 0 0 0 0 0 0 0 0 0 0 0 0 0 0
Wind_Speed_500mb
42 43 45 45 44 45 45 47 47 62 107 56 49 75 98 92 87 85 84 80 76 75 73 70 68 67 52 48 45 38 47 59 53 50 59 55 55 49
47 47 49 50 49 49 49 46 44 52 88 83 101 99 98 98 92 88 84 80 77 72 72 70 66 67 58 51 48 39 42 48 47 49 67 63 62 55
46 48 50 51 52 53 52 51 51 53 74 106 94 99 99 98 95 89 86 81 78 72 70 70 67 63 60 53 53 56 46 47 66 58 61 68 65 59
47 48 52 53 53 54 56 56 55 55 64 93 97 101 99 97 98 94 86 78 73 68 67 68 66 63 59 54 54 57 68 65 58 52 57 78 64 63
52 54 57 59 60 61 60 59 59 60 63 72 96 92 97 93 94 94 94 87 78 69 65 65 64 61 59 54 54 53 52 56 62 75 77 80 78 72
51 53 55 57 61 62 60 58 57 61 63 68 77 89 84 87 82 86 92 87 94 85 73 62 58 58 58 55 55 54 57 53 51 57 65 70 70 66
51 53 53 52 54 56 57 56 59 65 70 74 78 84 81 81 76 85 82 85 94 86 48 52 47 45 46 51 55 63 64 64 62 52 70 73 67 64
53 54 57 61 62 62 63 59 58 64 70 74 80 80 88 76 82 83 84 82 86 69 55 82 63 58 54 48 44 54 66 55 62 73 69 67 74 80
54 59 61 62 66 68 72 74 72 70 68 70 75 80 88 84 86 93 86 81 90 84 74 87 73 64 51 48 44 47 56 68 64 63 55 88 89 85
56 59 64 69 72 71 80 87 87 84 81 74 67 76 81 87 72 82 97 98 91 87 71 77 66 62 48 42 41 43 48 53 54 65 58 84 92 84
59 65 68 75 75 67 80 91 97 94 88 75 72 73 75 78 79 80 81 68 74 66 57 61 54 48 46 38 37 38 41 53 56 64 63 83 73 74
67 69 73 76 63 71 71 77 89 91 89 96 91 85 78 68 55 55 58 64 67 58 23 24 37 41 29 27 18 29 35 43 57 68 68 85 85 76
68 73 80 64 75 74 66 72 66 73 81 79 79 77 71 65 61 56 54 50 49 48 45 37 33 39 36 43 42 36 30 33 45 64 73 66 75 64
67 78 83 86 84 80 75 66 60 64 67 68 69 69 68 66 60 52 46 38 35 35 33 31 32 31 36 38 40 34 31 27 42 61 66 65 50 37
72 80 81 81 80 77 71 65 62 63 64 65 67 65 60 58 53 47 39 35 30 29 30 32 33 33 32 35 38 36 34 28 42 68 72 65 51 44
79 78 73 74 69 70 71 69 65 62 61 61 63 60 57 54 50 46 44 42 41 38 36 37 36 34 33 30 32 34 30 22 46 77 77 62 49 41
73 72 75 74 75 75 73 72 69 66 63 60 60 60 58 54 50 47 46 45 44 46 46 41 35 31 26 27 26 28 28 27 40 65 75 67 54 45
69 71 71 71 72 73 74 76 71 67 62 59 57 57 56 55 54 50 46 45 45 43 43 40 36 27 19 17 18 21 24 28 39 59 65 64 57 45
63 63 65 67 69 71 71 70 70 64 60 56 55 55 55 54 53 52 50 47 44 39 36 33 28 21 16 13 13 11 21 29 40 55 54 61 58 49
57 60 63 66 67 68 69 68 66 62 58 56 54 53 53 54 54 52 49 45 40 36 32 28 22 16 12 11 10 7 12 19 35 49 51 43 32 30
61 59 60 63 66 66 65 64 60 59 56 55 54 53 52 53 53 49 44 38 34 32 29 24 20 15 11 10 9 10 8 18 16 31 43 40 40 38
57 58 59 60 63 65 64 63 60 57 56 52 51 51 50 49 48 46 40 36 31 28 25 21 16 10 6 9 15 15 15 19 17 18 21 32 41 41
55 57 59 61 61 62 62 60 58 56 53 51 48 47 47 48 43 39 36 30 26 22 18 14 11 6 5 8 18 23 24 29 44 36 30 16 20 21
Wind_Direction_500mb
333 333 331 330 327 323 317 314 309 308 311 311 316 309 311 313 314 312 310 307 303 299 296 294 290 288 279 278 267 256 249 249 243 246 225 205 194 197
336 334 331 331 330 327 323 318 310 300 295 300 306 309 312 311 312 312 309 306 302 298 294 290 287 285 276 264 261 253 249 241 231 215 204 205 205 201
337 335 333 332 331 328 324 320 314 306 298 303 305 309 310 310 311 311 309 308 304 301 295 288 283 279 277 258 255 249 235 235 235 227 227 211 210 204
341 339 337 335 334 331 330 327 323 319 313 308 312 315 316 317 315 314 313 308 305 302 294 287 281 275 269 257 253 250 240 239 234 223 229 222 210 203
344 343 342 342 342 341 339 335 331 327 322 314 312 316 317 319 318 316 315 312 309 303 296 288 285 279 273 261 250 251 246 241 241 241 245 204 198 204
348 348 349 347 344 343 340 336 331 327 322 315 311 314 316 318 318 319 315 312 314 312 305 297 286 277 270 263 248 248 244 240 243 239 199 193 196 201
351 350 348 345 345 342 338 337 333 328 322 316 312 310 311 313 316 321 313 314 314 320 314 307 293 283 275 265 258 237 242 240 231 226 233 228 211 202
350 351 351 352 349 345 344 340 333 327 324 319 312 308 306 306 308 313 314 308 310 311 305 304 303 292 282 274 266 255 242 240 243 241 233 231 209 198
352 350 348 345 343 339 336 332 330 328 325 320 312 310 308 311 308 310 309 303 296 302 305 303 306 301 292 279 269 258 248 234 238 245 239 225 212 206
345 344 340 340 339 338 330 328 327 327 327 320 309 306 307 306 299 298 298 297 296 293 297 294 304 305 302 285 270 260 250 235 238 239 232 198 208 211
338 338 335 336 337 336 328 328 327 326 325 320 313 307 303 298 298 299 296 296 289 293 294 293 298 307 308 301 279 264 252 232 225 233 234 213 207 197
334 334 336 335 334 332 330 325 325 328 324 325 324 322 322 322 316 304 302 297 291 299 294 291 300 309 311 313 326 284 259 230 227 230 228 220 219 198
334 333 334 335 330 331 330 327 327 319 322 325 327 329 330 330 326 319 312 306 294 281 279 289 295 304 296 293 298 295 293 243 219 198 194 201 206 205
332 331 331 329 330 331 331 330 327 326 329 334 336 337 335 331 328 327 326 318 301 294 298 305 304 298 294 297 296 294 289 264 213 196 177 187 208 196
329 328 328 328 329 329 333 335 335 338 340 340 341 339 337 335 334 332 330 324 319 317 317 316 312 305 291 283 282 287 292 273 201 187 177 180 191 195
325 329 329 327 327 331 336 341 344 345 344 341 339 339 337 338 339 339 336 334 329 325 325 319 314 308 299 284 275 275 278 252 194 178 189 188 192 194
325 328 329 331 335 338 341 343 345 343 343 342 340 340 338 335 334 334 330 327 326 324 320 319 315 310 297 287 274 262 261 253 209 177 188 186 187 192
330 328 330 334 337 340 342 341 341 340 340 340 339 338 336 334 332 330 327 325 324 322 320 320 321 319 305 284 273 256 246 238 216 187 184 191 181 188
327 329 331 335 338 340 340 338 336 337 336 336 337 336 335 334 332 330 328 326 324 322 322 324 324 321 318 305 284 249 230 226 214 200 193 188 188 189
330 333 333 335 338 337 336 334 333 334 334 334 332 333 334 332 330 328 327 324 322 322 324 324 323 308 295 304 293 262 217 220 214 202 196 196 195 197
332 333 334 334 334 334 334 332 332 333 332 330 331 331 331 329 328 327 324 322 319 319 321 321 321 312 274 259 219 201 200 182 194 214 203 201 195 196
329 331 333 333 332 331 331 330 330 331 331 329 328 331 332 331 328 326 325 323 323 320 318 317 319 312 241 222 201 174 150 138 138 163 193 205 199 190
328 330 332 331 329 327 327 327 327 329 330 328 326 328 332 332 330 326 324 325 325 325 325 325 328 318 248 207 188 168 153 147 140 148 141 135 190 194
Wind_Speed_850mb
42 43 45 45 44 45 45 47 47 62 107 56 49 75 98 92 87 85 84 80 76 75 73 70 68 67 52 48 45 38 47 59 53 50 59 55 55 49
47 47 49 50 49 49 49 46 44 52 88 83 101 99 98 98 92 88 84 80 77 72 72 70 66 67 58 51 48 39 42 48 47 49 67 63 62 55
46 48 50 51 52 53 52 51 51 53 74 106 94 99 99 98 95 89 86 81 78 72 70 70 67 63 60 53 53 56 46 47 66 58 61 68 65 59
47 48 52 53 53 54 56 56 55 55 64 93 97 101 99 97 98 94 86 78 73 68 67 68 66 63 59 54 54 57 68 65 58 52 57 78 64 63
52 54 57 59 60 61 60 59 59 60 63 72 96 92 97 93 94 94 94 87 78 69 65 65 64 61 59 54 54 53 52 56 62 75 77 80 78 72
51 53 55 57 61 62 60 58 57 61 63 68 77 89 84 87 82 86 92 87 94 85 73 62 58 58 58 55 55 54 57 53 51 57 65 70 70 66
51 53 53 52 54 56 57 56 59 65 70 74 78 84 81 81 76 85 82 85 94 86 48 52 47 45 46 51 55 63 64 64 62 52 70 73 67 64
53 54 57 61 62 62 63 59 58 64 70 74 80 80 88 76 82 83 84 82 86 69 55 82 63 58 54 48 44 54 66 55 62 73 69 67 74 80
54 59 61 62 66 68 72 74 72 70 68 70 75 80 88 84 86 93 86 81 90 84 74 87 73 64 51 48 44 47 56 68 64 63 55 88 89 85
56 59 64 69 72 71 80 87 87 84 81 74 67 76 81 87 72 82 97 98 91 87 71 77 66 62 48 42 41 43 48 53 54 65 58 84 92 84
59 65 68 75 75 67 80 91 97 94 88 75 72 73 75 78 79 80 81 68 74 66 57 61 54 48 46 38 37 38 41 53 56 64 63 83 73 74
67 69 73 76 63 71 71 77 89 91 89 96 91 85 78 68 55 55 58 64 67 58 23 24 37 41 29 27 18 29 35 43 57 68 68 85 85 76
68 73 80 64 75 74 66 72 66 73 81 79 79 77 71 65 61 56 54 50 49 48 45 37 33 39 36 43 42 36 30 33 45 64 73 66 75 64
67 78 83 86 84 80 75 66 60 64 67 68 69 69 68 66 60 52 46 38 35 35 33 31 32 31 36 38 40 34 31 27 42 61 66 65 50 37
72 80 81 81 80 77 71 65 62 63 64 65 67 65 60 58 53 47 39 35 30 29 30 32 33 33 32 35 38 36 34 28 42 68 72 65 51 44
79 78 73 74 69 70 71 69 65 62 61 61 63 60 57 54 50 46 44 42 41 38 36 37 36 34 33 30 32 34 30 22 46 77 77 62 49 41
73 72 75 74 75 75 73 72 69 66 63 60 60 60 58 54 50 47 46 45 44 46 46 41 35 31 26 27 26 28 28 27 40 65 75 67 54 45
69 71 71 71 72 73 74 76 71 67 62 59 57 57 56 55 54 50 46 45 45 43 43 40 36 27 19 17 18 21 24 28 39 59 65 64 57 45
63 63 65 67 69 71 71 70 70 64 60 56 55 55 55 54 53 52 50 47 44 39 36 33 28 21 16 13 13 11 21 29 40 55 54 61 58 49
57 60 63 66 67 68 69 68 66 62 58 56 54 53 53 54 54 52 49 45 40 36 32 28 22 16 12 11 10 7 12 19 35 49 51 43 32 30
61 59 60 63 66 66 65 64 60 59 56 55 54 53 52 53 53 49 44 38 34 32 29 24 20 15 11 10 9 10 8 18 16 31 43 40 40 38
57 58 59 60 63 65 64 63 60 57 56 52 51 51 50 49 48 46 40 36 31 28 25 21 16 10 6 9 15 15 15 19 17 18 21 32 41 41
55 57 59 61 61 62 62 60 58 56 53 51 48 47 47 48 43 39 36 30 26 22 18 14 11 6 5 8 18 23 24 29 44 36 30 16 20 21
Wind_Direction_850mb
333 333 331 330 327 323 317 314 309 308 311 311 316 309 311 313 314 312 310 307 303 299 296 294 290 288 279 278 267 256 249 249 243 246 225 205 194 197
336 334 331 331 330 327 323 318 310 300 295 300 306 309 312 311 312 312 309 306 302 298 294 290 287 285 276 264 261 253 249 241 231 215 204 205 205 201
337 335 333 332 331 328 324 320 314 306 298 303 305 309 310 310 311 311 309 308 304 301 295 288 283 279 277 258 255 249 235 235 235 227 227 211 210 204
341 339 337 335 334 331 330 327 323 319 313 308 312 315 316 317 315 314 313 308 305 302 294 287 281 275 269 257 253 250 240 239 234 223 229 222 210 203
344 343 342 342 342 341 339 335 331 327 322 314 312 316 317 319 318 316 315 312 309 303 296 288 285 279 273 261 250 251 246 241 241 241 245 204 198 204
348 348 349 347 344 343 340 336 331 327 322 315 311 314 316 318 318 319 315 312 314 312 305 297 286 277 270 263 248 248 244 240 243 239 199 193 196 201
351 350 348 345 345 342 338 337 333 328 322 316 312 310 311 313 316 321 313 314 314 320 314 307 293 283 275 265 258 237 242 240 231 226 233 228 211 202
350 351 351 352 349 345 344 340 333 327 324 319 312 308 306 306 308 313 314 308 310 311 305 304 303 292 282 274 266 255 242 240 243 241 233 231 209 198
352 350 348 345 343 339 336 332 330 328 325 320 312 310 308 311 308 310 309 303 296 302 305 303 306 301 292 279 269 258 248 234 238 245 239 225 212 206
345 344 340 340 339 338 330 328 327 327 327 320 309 306 307 306 299 298 298 297 296 293 297 294 304 305 302 285 270 260 250 235 238 239 232 198 208 211
338 338 335 336 337 336 328 328 327 326 325 320 313 307 303 298 298 299 296 296 289 293 294 293 298 307 308 301 279 264 252 232 225 233 234 213 207 197
334 334 336 335 334 332 330 325 325 328 324 325 324 322 322 322 316 304 302 297 291 299 294 291 300 309 311 313 326 284 259 230 227 230 228 220 219 198
334 333 334 335 330 331 330 327 327 319 322 325 327 329 330 330 326 319 312 306 294 281 279 289 295 304 296 293 298 295 293 243 219 198 194 201 206 205
332 331 331 329 330 331 331 330 327 326 329 334 336 337 335 331 328 327 326 318 301 294 298 305 304 298 294 297 296 294 289 264 213 196 177 187 208 196
329 328 328 328 329 329 333 335 335 338 340 340 341 339 337 335 334 332 330 324 319 317 317 316 312 305 291 283 282 287 292 273 201 187 177 180 191 195
325 329 329 327 327 331 336 341 344 345 344 341 339 339 337 338 339 339 336 334 329 325 325 319 314 308 299 284 275 275 278 252 194 178 189 188 192 194
325 328 329 331 335 338 341 343 345 343 343 342 340 340 338 335 334 334 330 327 326 324 320 319 315 310 297 287 274 262 261 253 209 177 188 186 187 192
330 328 330 334 337 340 342 341 341 340 340 340 339 338 336 334 332 330 327 325 324 322 320 320 321 319 305 284 273 256 246 238 216 187 184 191 181 188
327 329 331 335 338 340 340 338 336 337 336 336 337 336 335 334 332 330 328 326 324 322 322 324 324 321 318 305 284 249 230 226 214 200 193 188 188 189
330 333 333 335 338 337 336 334 333 334 334 334 332 333 334 332 330 328 327 324 322 322 324 324 323 308 295 304 293 262 217 220 214 202 196 196 195 197
332 333 334 334 334 334 334 332 332 333 332 330 331 331 331 329 328 327 324 322 319 319 321 321 321 312 274 259 219 201 200 182 194 214 203 201 195 196
329 331 333 333 332 331 331 330 330 331 331 329 328 331 332 331 328 326 325 323 323 320 318 317 319 312 241 222 201 174 150 138 138 163 193 205 199 190
328 330 332 331 329 327 327 327 327 329 330 328 326 328 332 332 330 326 324 325 325 325 325 325 328 318 248 207 188 168 153 147 140 148 141 135 190 194